Date String (YYYY-MM-DD hh:mm:ss) UTC,Instrument flags,Ambient pressure (hPa),Sample flow (lpm),Bypass flow (lpm),Sample temperature (°C),Ambient temperature (°C),ASC tube jacket temperature (°C),LED temperature (°C),Box temperature (°C),Sample RH (%),Span deviation,Mass concentration (μg/m³),Mass concentration (μg/m³),Mass concentration (μg/m³)
DateTimeUTC,F1_M11,P_M11,Q1_M11,Q2_M11,T1_M11,T2_M11,T3_M11,T4_M11,T5_M11,U1_M11,ZSPAN_M11,X2_M11,X0_M11,X1_M11
2021-09-16 19:00:00,,0822.1,4.99,0.00,29.0,25.8,00.0,38.0,30.4,11.7,0003.5,0006.56,0012.56,0005.95
2021-09-16 19:01:00,,0822.2,5.00,0.00,28.9,26.2,00.0,38.0,30.5,11.4,0003.6,0006.52,0012.04,0005.93
2021-09-16 19:02:00,,0822.2,5.00,0.00,28.9,26.6,00.0,38.0,30.6,11.3,0003.6,0006.52,0011.98,0005.92
2021-09-16 19:03:00,,0822.1,5.01,0.00,28.9,27.0,00.0,38.0,30.7,11.4,0003.5,0006.51,0012.59,0005.91
2021-09-16 19:04:00,,0822.2,4.99,0.00,29.0,27.4,00.0,38.0,30.8,11.4,0003.3,0006.52,0013.67,0005.91
2021-09-16 19:05:00,,0822.1,5.01,0.00,29.1,27.7,00.0,38.0,31.0,11.5,0003.2,0006.49,0013.80,0005.89
2021-09-16 19:06:00,,0822.1,5.00,0.00,29.1,27.8,00.0,38.0,31.0,11.7,0003.4,0006.47,0014.06,0005.88
2021-09-16 19:07:00,,0822.1,4.99,0.00,29.1,26.6,00.0,38.0,30.7,11.4,0003.3,0006.44,0013.73,0005.87
2021-09-16 19:08:00,,0822.1,4.99,0.00,28.9,25.8,00.0,38.0,30.3,11.3,0002.8,0006.47,0013.81,0005.84
2021-09-16 19:09:00,,0822.1,5.01,0.00,28.9,26.2,00.0,38.0,30.5,11.3,0002.7,0006.45,0013.63,0005.83
2021-09-16 19:10:00,,0822.1,4.99,0.00,28.9,26.6,00.0,38.0,30.5,11.5,0002.6,0006.46,0013.87,0005.82
2021-09-16 19:11:00,,0822.1,4.99,0.00,28.9,27.0,00.0,37.9,30.7,11.6,0002.5,0006.41,0015.16,0005.79
2021-09-16 19:12:00,,0822.0,5.01,0.00,29.0,27.4,00.0,38.0,30.8,11.6,0002.7,0006.40,0015.67,0005.80
2021-09-16 19:13:00,,0822.1,5.00,0.00,29.0,27.7,00.0,38.0,30.9,11.7,0002.6,0006.41,0015.11,0005.80
2021-09-16 19:14:00,,0822.1,5.01,0.00,29.1,28.0,00.0,38.0,31.0,11.1,0002.8,0006.42,0014.36,0005.81
2021-09-16 19:15:00,,0822.1,4.99,0.00,29.1,27.5,00.0,38.0,30.9,11.0,0002.7,0006.44,0013.39,0005.81
2021-09-16 19:16:00,,0822.1,5.01,0.00,29.0,25.9,00.0,38.0,30.3,11.1,0002.6,0006.43,0013.35,0005.80
2021-09-16 19:17:00,,0822.0,4.99,0.00,28.9,25.8,00.0,38.0,30.3,11.4,0002.7,0006.44,0012.98,0005.80
2021-09-16 19:18:00,,0822.1,5.00,0.00,28.9,26.2,00.0,38.0,30.5,11.7,0002.6,0006.47,0013.01,0005.81
2021-09-16 19:19:00,,0822.1,5.00,0.00,28.9,26.6,00.0,37.9,30.6,11.3,0002.5,0006.42,0013.31,0005.82
2021-09-16 19:20:00,,0822.1,5.01,0.00,28.9,27.1,00.0,37.9,30.7,11.2,0002.6,0006.37,0013.56,0005.81
2021-09-16 19:21:00,,0822.0,4.99,0.00,29.0,27.5,00.0,37.9,30.8,11.2,0002.9,0006.36,0012.76,0005.81
2021-09-16 19:22:00,,0822.1,5.00,0.00,29.0,27.8,00.0,38.0,30.9,11.4,0002.6,0006.41,0011.62,0005.82
2021-09-16 19:23:00,,0822.1,5.01,0.00,29.1,28.1,00.0,38.0,31.1,11.5,0002.1,0006.42,0012.03,0005.82
2021-09-16 19:24:00,,0822.1,4.99,0.00,29.1,27.6,00.0,38.0,30.9,11.3,0002.1,0006.40,0012.72,0005.80
2021-09-16 19:25:00,,0822.1,5.00,0.00,29.0,26.0,00.0,38.0,30.4,11.2,0001.9,0006.41,0012.96,0005.80
2021-09-16 19:26:00,,0822.1,5.01,0.00,28.9,25.8,00.0,38.0,30.3,11.5,0001.6,0006.38,0012.75,0005.79
2021-09-16 19:27:00,,0822.0,4.99,0.00,28.9,26.2,00.0,38.0,30.5,11.7,0001.8,0006.36,0012.45,0005.79
2021-09-16 19:28:00,,0822.0,4.99,0.00,28.9,26.6,00.0,37.9,30.6,11.6,0001.6,0006.33,0012.51,0005.79
2021-09-16 19:29:00,,0822.1,5.01,0.00,28.9,27.0,00.0,37.9,30.7,11.7,0001.8,0006.36,0012.64,0005.79
2021-09-16 19:30:00,,0822.1,5.00,0.00,29.0,27.3,00.0,37.9,30.8,11.6,0002.2,0006.39,0012.65,0005.80
2021-09-16 19:31:00,,0822.0,5.01,0.00,29.0,27.7,00.0,38.0,30.9,11.3,0002.6,0006.42,0012.85,0005.82
2021-09-16 19:32:00,,0822.0,4.99,0.00,29.1,27.9,00.0,38.0,30.9,11.1,0002.4,0006.42,0013.56,0005.83
2021-09-16 19:33:00,,0822.0,5.00,0.00,29.1,26.7,00.0,38.0,30.7,11.0,0002.3,0006.40,0013.72,0005.83
2021-09-16 19:34:00,,0822.0,5.01,0.00,28.9,25.6,00.0,38.0,30.3,11.3,0002.5,0006.41,0013.03,0005.82
2021-09-16 19:35:00,,0821.9,5.00,0.00,28.9,25.9,00.0,38.0,30.4,11.3,0002.4,0006.44,0013.07,0005.85
2021-09-16 19:36:00,,0822.0,5.00,0.00,28.8,26.4,00.0,37.9,30.5,11.1,0002.2,0006.43,0013.18,0005.85
2021-09-16 19:37:00,,0822.0,5.00,0.00,28.9,26.9,00.0,37.9,30.6,11.3,0002.2,0006.40,0013.42,0005.85
2021-09-16 19:38:00,,0822.0,4.99,0.00,28.9,27.3,00.0,37.9,30.8,11.4,0001.8,0006.39,0013.43,0005.85
2021-09-16 19:39:00,,0822.0,5.02,0.00,29.0,27.6,00.0,37.9,30.9,11.3,0001.5,0006.39,0013.33,0005.84
2021-09-16 19:40:00,,0822.0,4.98,0.00,29.0,27.9,00.0,38.0,31.0,11.2,0001.4,0006.35,0013.49,0005.84
2021-09-16 19:41:00,,0822.0,5.01,0.00,29.1,27.6,00.0,38.0,30.9,11.1,0001.4,0006.30,0014.22,0005.82
2021-09-16 19:42:00,,0822.0,5.01,0.00,29.0,26.0,00.0,38.0,30.5,11.3,0001.4,0006.30,0014.15,0005.81
2021-09-16 19:43:00,,0822.0,4.99,0.00,28.9,25.6,00.0,37.9,30.3,11.2,0001.2,0006.36,0014.03,0005.81
2021-09-16 19:44:00,,0821.9,5.00,0.00,28.8,26.1,00.0,37.9,30.4,11.3,0001.4,0006.40,0014.15,0005.81
2021-09-16 19:45:00,,0822.0,5.00,0.00,28.8,26.5,00.0,37.9,30.5,11.3,0001.0,0006.41,0014.73,0005.80
2021-09-16 19:46:00,,0822.0,5.01,0.00,28.9,26.9,00.0,37.9,30.6,11.3,0001.0,0006.36,0014.19,0005.78
2021-09-16 19:47:00,,0822.0,5.00,0.00,28.9,27.3,00.0,37.9,30.7,11.3,0001.1,0006.34,0013.61,0005.77
2021-09-16 19:48:00,,0822.0,5.00,0.00,29.0,27.7,00.0,37.9,30.9,11.6,0001.6,0006.36,0013.27,0005.78
2021-09-16 19:49:00,,0822.1,4.99,0.00,29.1,27.9,00.0,37.9,30.9,11.7,0001.9,0006.41,0013.87,0005.80
2021-09-16 19:50:00,,0822.0,5.00,0.00,29.0,26.8,00.0,37.9,30.6,11.4,0002.3,0006.44,0013.98,0005.81
2021-09-16 19:51:00,,0822.0,5.01,0.00,28.9,25.5,00.0,37.9,30.3,11.6,0002.4,0006.44,0013.66,0005.80
2021-09-16 19:52:00,,0822.0,5.01,0.00,28.8,25.8,00.0,37.9,30.3,11.6,0002.2,0006.45,0014.06,0005.81
2021-09-16 19:53:00,,0822.0,5.00,0.00,28.8,26.2,00.0,37.9,30.4,11.5,0002.0,0006.45,0013.90,0005.81
2021-09-16 19:54:00,,0822.0,5.00,0.00,28.8,26.7,00.0,37.9,30.5,11.5,0002.3,0006.39,0013.60,0005.80
2021-09-16 19:55:00,,0821.9,5.00,0.00,28.8,27.1,00.0,37.9,30.6,11.9,0002.6,0006.35,0013.12,0005.79
2021-09-16 19:56:00,,0822.2,4.99,0.00,28.9,27.5,00.0,37.9,30.7,12.2,0002.9,0006.40,0012.38,0005.81
2021-09-16 19:57:00,,0822.1,5.00,0.00,29.0,27.8,00.0,37.9,30.8,12.0,0003.0,0006.40,0012.26,0005.82
2021-09-16 19:58:00,,0821.9,5.01,0.00,29.0,28.1,00.0,37.9,31.0,11.4,0003.0,0006.37,0012.37,0005.80
2021-09-16 19:59:00,,0821.9,4.99,0.00,29.1,27.9,00.0,37.9,30.9,11.4,0002.9,0006.36,0012.70,0005.77
